Regional Weather Roundup
Issued by NWS

Home | Current Version | Previous Version | Graphics & Text | Print | Product List | Glossary On
Versions: 1 2 3 4 5 6 7 8 9 10 11 12 13 14 15 16 17 18 19 20 21 22 23 24 25 26 27 28 29 30 31 32 33 34 35 36 37 38 39 40 41 42 43 44 45 46 47 48 49 50
000
ASUS43 KLMK 200410
RWRKY
KENTUCKY REGIONAL WEATHER ROUNDUP
NATIONAL WEATHER SERVICE LOUISVILLE KY
1100 PM EST SUN FEB 19 2017

NOTE "FAIR" INDICATES FEW OR NO CLOUDS BELOW 12,000 FEET
WITH NO SIGNIFICANT WEATHER AND/OR OBSTRUCTIONS TO VISIBILITY.

KYZ001>023-026-027-061>063-070>075-200500-
WESTERN AND SOUTH CENTRAL KENTUCKY

CITY           SKY/WX    TMP DP  RH WIND       PRES   REMARKS
PADUCAH        FOG       48  45  89 CALM      30.11R VSB 1/4
HENDERSON      CLOUDY    45  39  81 E5        30.14R VSB 1/4
OWENSBORO      CLEAR     46  46 100 NE5       30.15R FOG
HOPKINSVILLE   CLOUDY    54  52  94 E5        30.12R
BOWLING GREEN  PTCLDY    48  47  96 CALM      30.15R FOG
GLASGOW        CLEAR    N/A N/A N/A CALM      30.14S FOG
$$

KYZ024-025-028>034-038-045-046-053-200500-
NORTH CENTRAL KENTUCKY

CITY           SKY/WX    TMP DP  RH WIND       PRES   REMARKS
LOUISVILLE/SDF PTCLDY    46  43  89 CALM      30.15S FOG
LOUISVILLE/LOU FOG       44  41  89 CALM      30.16S VSB 1
FORT KNOX      FOG       41  41 100 CALM      30.14R VSB 1/4
$$

KYZ035>037-039>044-047>052-055>060-089>105-200500-
NORTHEAST KENTUCKY

CITY           SKY/WX    TMP DP  RH WIND       PRES   REMARKS
LEXINGTON      MOCLDY    45  42  89 CALM      30.17S FOG
COVINGTON      CLEAR     42  41  96 S3        30.16S FOG
FRANKFORT      FOG       40  37  89 CALM      30.16S VSB 1/4
$$

KYZ054-064>069-076>088-106>120-200500-
SOUTHEAST KENTUCKY

CITY           SKY/WX    TMP DP  RH WIND       PRES   REMARKS
JACKSON        CLEAR     50  44  80 NE3       30.17R
LONDON         CLEAR     45  42  89 CALM      30.16R
SOMERSET       CLEAR     46  45  93 CALM      30.17R
MIDDLESBORO    CLEAR     42  41  98 CALM      30.18S
MONTICELLO     CLEAR     40  39  97 NE8       30.17S WCI  34
$$




USA.gov is the U.S. government's official web portal to all federal, state and local government web resources and services.